Location: Chalais
(46.9714°N, 0.0875°E)
Time: 00:27:47
(UTC+00:00)

Daily predictions for brighter satellites

Satellite Brightness Start Highest point End
(mag) Time Altitude Azimuth Time Altitude Azimuth Time Altitude Azimuth
CENTAUR R/B 3.6 03:44:24 41° NE 03:44:24 41° NE 03:48:56 10° NE
NOSS 3-2 (C) 3.9 04:12:49 54° NE 04:12:49 54° NE 04:17:47 10° NE
BREEZE-M DEB (TANK) 3.8 04:21:03 51° SSE 04:21:03 51° SSE 04:29:29 10° ESE
Cosmos 2098 Rocket 4.1 04:32:19 36° SE 04:33:38 47° E 04:38:38 10° NNE
Cosmos 2369 Rocket 2.2 04:34:16 73° SE 04:34:32 75° ESE 04:40:09 10° NNE
Cosmos 2344 3.6 04:34:44 55° NW 04:34:44 55° NW 04:42:38 10° NE
USA 238 DEB 3.6 04:39:33 62° NNW 04:39:33 62° NNW 04:46:11 10° NE
USA 238 3.6 04:39:38 63° NW 04:39:38 63° NW 04:46:18 10° NE
SL-19 R/B 4.4 04:34:01 10° SSE 04:39:32 72° ENE 04:41:27 42° N
Cosmos 1656 Rocket 4.0 04:37:56 32° S 04:40:20 60° ESE 04:45:42 10° NNE
Cosmos 2279 Rocket 4.4 04:35:47 10° N 04:41:55 60° ENE 04:48:02 10° SSE
COSMO-SKYMED 1 3.5 04:37:55 10° SE 04:42:03 45° ENE 04:42:51 40° NE
USA 215 3.5 04:38:29 10° ESE 04:44:52 60° NNE 04:46:50 43° NNW
Cosmos 1943 Rocket 3.3 04:54:24 30° N 04:54:24 30° N 04:57:40 10° NNE
CZ-2C R/B 2.9 04:48:13 10° SSE 04:53:37 67° ENE 04:57:37 18° N
Gblst 52 Del rocket 4.5 04:59:59 53° NW 05:01:03 61° N 05:07:48 10° ENE
Cosmos 1634 Rocket 3.9 04:58:14 33° NNW 05:01:07 66° W 05:07:14 10° S
Cosmos 1862 4.4 05:01:43 10° S 05:07:19 33° NNE 05:09:37 10° N
Landsat 5 3.9 05:05:26 10° SSE 05:09:53 68° ENE 05:12:32 24° N
Cosmos 1515 Rocket 4.5 05:06:34 13° N 05:10:21 48° ENE 05:14:32 10° SSE
SJ 16-02 3.3 05:08:16 10° SSE 05:12:03 29° E 05:15:52 10° NE
Tsikada Rocket 4.4 05:16:30 40° WNW 05:16:30 40° WNW 05:21:50 10° N
BREEZE-M DEB (TANK) 2.8 05:16:52 62° NNW 05:16:58 62° N 05:23:26 10° E
Meteor 2-8 Rocket 4.3 05:17:49 10° N 05:24:00 85° W 05:30:07 10° S
COSMOS 2487 4.5 05:23:41 14° NNE 05:25:48 25° ENE 05:28:37 10° ESE
CZ-4C R/B 3.0 05:22:50 10° SSE 05:25:56 66° ENE 05:26:28 53° NNE
SKYMED 2 3.5 05:25:48 10° S 05:30:05 58° W 05:31:28 39° NW
SJ-12 3.9 05:26:32 10° N 05:30:37 60° WNW 05:34:42 10° SSW
MOS 1-B Rocket 4.1 05:24:43 10° S 05:30:39 47° W 05:33:51 24° NW
CZ-2C R/B 4.1 05:27:49 10° NNE 05:32:32 45° E 05:37:25 10° S
CENTAUR R/B 3.3 05:31:36 30° NW 05:33:20 34° NNW 05:40:03 10° NE
Cosmos 2180 Rocket 4.3 05:27:59 10° NNW 05:34:09 75° W 05:40:15 10° S
Cosmos 783 Rocket 4.4 05:31:02 23° NNW 05:34:23 79° WSW 05:39:34 10° SSE
FALCON 9 DEB 4.5 05:37:32 22° NNE 05:37:32 22° NNE 05:39:31 10° NE
Cosmos 1503 Rocket 4.0 05:33:44 10° SSW 05:38:58 64° WNW 05:44:18 10° NNE
ATLAS 5 CENTAUR R/B 2.3 05:35:58 10° SSW 05:39:38 48° ESE 05:43:44 10° NE
FALCON 9 DEB 4.4 05:40:01 23° NNE 05:40:01 23° NNE 05:42:08 10° ENE
FALCON 9 DEB 4.3 05:40:11 23° NNE 05:40:11 23° NNE 05:42:21 10° ENE
CZ-4B R/B 4.0 05:37:03 10° NNE 05:40:26 39° E 05:43:50 10° S
Meteor 1-27 Rocket 3.8 05:35:41 10° N 05:41:22 81° E 05:47:08 10° SSE
Cosmos 1151 Rocket 3.9 05:42:26 30° WSW 05:42:26 30° WSW 05:45:37 10° SSW
H-2A R/B 3.0 05:39:51 10° SE 05:43:57 47° ENE 05:48:11 10° N
Meteor PRIRODA 4.4 05:41:45 10° NNE 05:45:18 52° E 05:48:51 10° S
Cosmos 1777 Rocket 4.2 05:41:10 10° SSW 05:46:21 73° ESE 05:51:35 10° NNE
SL-8 R/B 4.3 05:45:02 29° W 05:46:51 41° SSW 05:51:19 10° SE
Cosmos 773 Rocket 3.9 05:45:01 18° NNW 05:48:55 67° WSW 05:54:02 10° S
Lacrosse 4 Rocket 4.0 05:48:02 10° N 05:50:15 13° NE 05:52:27 10° ENE
Cosmos 1515 4.4 05:49:56 10° N 05:53:40 53° ENE 05:57:24 10° SSE
Cosmos 1340 Rocket 3.1 05:50:55 10° S 05:54:50 70° E 05:58:51 10° NNE
Okean 3 Rocket 4.1 05:51:16 10° SW 05:55:27 36° WNW 05:59:40 10° N
SL-27 R/B 2.6 05:54:53 30° NW 05:56:19 51° WSW 05:59:45 10° S
Cosmos 1766 Rocket 4.3 05:54:35 10° SW 05:58:22 29° WNW 06:02:10 10° N
NOSS 2 (A) 4.0 05:59:54 40° NW 06:00:42 80° SW 06:03:09 10° SE
ATLAS 3B R/B 3.0 05:56:33 10° SSW 06:03:01 69° ESE 06:09:49 10° NE
NOSS 3-2 (C) 4.4 06:00:17 21° WNW 06:03:04 29° NNW 06:08:58 10° NNE
Envisat 3.5 05:58:39 10° N 06:03:18 37° WNW 06:07:55 10° SW
DMSP B5D2-2 4.0 05:58:08 10° S 06:03:20 76° WSW 06:08:35 10° NNW
Cosmos 1328 Rocket 4.5 06:02:40 23° WNW 06:03:55 26° W 06:07:33 10° SW
FALCON 9 DEB 4.2 06:03:14 21° NNW 06:03:58 24° N 06:06:24 10° ENE
Cosmos 158 Rocket 4.0 06:05:06 10° NNW 06:10:16 87° ENE 06:15:32 10° SSE
Cosmos 2297 Rocket 3.2 06:08:50 10° NNW 06:14:16 45° NE 06:19:40 10° SE
Cosmos 1939 Rocket 3.0 06:10:21 10° NNE 06:14:17 74° ESE 06:18:09 10° S
Cosmos 2098 Rocket 4.5 06:12:45 14° WSW 06:15:08 21° WNW 06:19:02 10° NNW
FALCON 9 DEB 4.3 06:13:35 19° NW 06:15:12 28° N 06:18:12 10° ENE
Cosmos 1174 3.0 06:13:37 10° SW 06:16:34 68° NW 06:19:45 10° NNE
H-2A R/B 4.4 06:15:44 10° NNW 06:21:57 - WSW 06:17:12 16° NW
COSMO-SKYMED 1 3.9 06:15:16 10° SW 06:18:26 20° W 06:20:04 16° WNW
Cosmos 2369 Rocket 3.3 06:16:09 15° W 06:19:11 23° NW 06:23:34 10° N
Meteor 1-31 Rocket 3.8 06:16:02 10° NNW 06:19:13 24° WNW 06:22:24 10° WSW
Cosmos 1607 4.0 06:17:06 10° NW 06:23:25 82° NE 06:29:34 10° SE
CZ-4B R/B 1.8 06:21:47 10° SSE 06:25:03 63° ENE 06:28:18 10° N
SL-4 R/B 4.1 06:22:52 10° SSW 06:25:50 25° SE 06:28:59 10° E
USA 215 3.6 06:21:35 10° SSE 06:27:57 55° SW 06:34:11 11° WNW
Okean 1 3.4 06:25:26 10° N 06:29:24 78° E 06:33:20 10° SSE
Cosmos 1408 Rocket 4.4 06:27:05 10° SW 06:30:47 28° WNW 06:34:31 10° NNW
CZ-2D R/B 4.0 06:29:58 10° NNE 06:33:42 56° E 06:37:25 10° S
CZ-2C R/B 4.0 06:30:32 10° SW 06:34:21 19° W 06:38:09 10° NW
Cosmos 2263 Rocket 4.4 06:32:34 10° N 06:35:43 15° NE 06:38:50 10° ENE
Cosmos 1943 Rocket 4.0 06:36:12 10° NW 06:37:42 11° NNW 06:39:12 10° NNW
Nadezhda 4 Rocket 4.3 06:32:05 10° SW 06:37:55 43° WNW 06:43:51 10° N
NOAA 12 4.1 06:33:11 10° N 06:38:23 61° WNW 06:43:32 10° SSW
FengYun 1-2 T 4.2 06:34:21 10° NNE 06:39:51 75° WNW 06:45:19 10° SSW
Cosmos 1743 Rocket 4.0 06:36:23 10° SW 06:40:31 40° WNW 06:44:38 10° N
Cosmos 2228 Rocket 3.3 06:37:35 10° NNW 06:41:58 52° W 06:46:23 10° S
Lacrosse 5 4.3 06:40:57 10° S 06:45:15 28° SE 06:49:35 10° ENE
Alouette 2 Rocket 3.9 06:42:22 10° NNW 06:45:42 32° W 06:48:57 10° SSW
CORIOLIS 4.2 06:40:26 10° NNE 06:45:56 90° WNW 06:51:23 10° SSW
Meteor 2-4 Rocket 4.2 06:41:12 10° N 06:47:09 68° ENE 06:52:58 10° SSE
Cosmos 2227 Rocket 2.8 06:44:34 10° NNW 06:50:11 59° ENE 06:55:44 10° SE
SJ 16-02 2.1 06:46:40 10° WSW 06:50:34 31° WNW 06:54:29 10° N
Cosmos 1666 Rocket 3.9 06:47:13 10° S 06:51:40 76° E 06:56:10 10° NNE
ADEOS 4.4 06:48:16 10° N 06:52:42 29° WNW 06:57:08 10° WSW
Cosmos 1092 Rocket 4.2 06:49:23 10° SSW 06:55:29 53° WNW 07:01:42 10° N
Meteor 1-20 Rocket 4.4 06:51:24 10° SSW 06:56:48 49° WNW 07:02:21 10° N
Cosmos 1602 4.3 06:54:31 10° SW 06:58:01 35° WNW 07:01:33 10° N
Meteor 1-19 Rocket 4.3 06:54:13 10° NNW 06:59:40 55° W 07:04:58 10° S
Cosmos 1656 4.0 06:55:12 10° SSW 07:00:36 73° ESE 07:06:03 10° NNE
ARGOS 4.2 06:56:32 10° NNE 07:01:47 51° E 07:06:58 10° S
CZ-4B DEB 4.2 06:57:01 10° NNE 07:02:31 82° WNW 07:07:57 10° SSW
